Terug naar catalogus

COSMOS 1823 DEB

ActiefLEO
NORAD 39822·DEBRIS·🇷🇺 Russia

Gelanceerd Feb 20, 1987 vanaf Plesetsk Cosmodrome

Loading…

Volgende Passages (komende 24 uur)

TLE

VerouderdSource: Space-Track

Epoch: Sep 7, 2026, 07:04 UTC

1 39822U 87020EW  26250.29507789  .00000218  00000-0  19047-2 0  9997
2 39822  73.9697 109.6610 0144308  45.9018 315.3792 12.30516545991198

Volg COSMOS 1823 DEB in realtime met AllMySat

Download on the App Store